Location: Namasale
(1.5000°N, 32.6167°E)
Time: 18:13:41
(UTC+00:00)

Courier 1B - Pass Details

Date: 19 April 2021
Orbit: 962 x 1209 km, 28.3° (Epoch: 18 May)

Event Time Altitude Azimuth Distance (km) Brightness Sun altitude
Rises 18:24:41 0° 299° (WNW) 3,748 11.5 -37.7°
Reaches altitude 10° 18:27:18 10° 299° (WNW) 2,830 10.6 -38.3°
Enters shadow 18:31:36 42° 296° (WNW) 1,471 8.6 -39.4°
Maximum altitude 18:34:15 85° 211° (SSW) 1,091 - -40.0°
Drops below altitude 10° 18:41:43 10° 122° (ESE) 3,021 - -41.8°
Sets 18:44:35 0° 121° (ESE) 4,016 - -42.5°
